"2016-02-16 00:00:00",1378011,23.61,327.5,8.77,1.242,16.3,104.04,9.62,10.82,30.96,0,110.3,13.14,10.40,289.5
"2016-02-16 00:00:30",1378012,19.49,322.2,7.253,1.609,16.25,104.0395,9.62,10.82,30.6,0,110.3,13.14,10.40,284.2
"2016-02-16 00:01:00",1378013,22.52,322.8,6.739,1.762,16.05,104.0384,9.61,10.86,30.82,0,110.2,13.14,10.40,284.8
"2016-02-16 00:01:30",1378014,21.65,323.9,6.67,1.911,16.55,104.0402,9.62,10.84,30.75,0,110.2,13.14,10.40,285.9
"2016-02-16 00:02:00",1378015,21.39,332.6,6.639,1.347,16.22,104.0417,9.62,10.83,30.88,0,110.2,13.14,10.41,294.6
"2016-02-16 00:02:30",1378016,21.12,322.3,7.185,1.514,15.88,104.0406,9.62,10.81,30.82,0,110.2,13.14,10.40,284.3
"2016-02-16 00:03:00",1378017,21.57,319.3,6.825,2.529,16.03,104.0378,9.61,10.81,31.16,0,110.2,13.14,10.40,281.3
"2016-02-16 00:03:30",1378018,28.19,321.5,7.5,3.013,16.15,104.0373,9.61,10.84,30.76,0,110.2,13.14,10.40,283.5
"2016-02-16 00:04:00",1378019,28.21,328.5,7.235,1.806,16.43,104.0398,9.62,10.81,30.4,0,110.2,13.15,10.40,290.5
"2016-02-16 00:04:30",1378020,25.94,328.3,7.402,1.777,16.71,104.0509,9.64,10.82,30.33,0,110.2,13.15,10.43,290.3
"2016-02-16 00:05:00",1378021,23.84,329.8,6.23,1.582,16.67,104.0546,9.65,10.84,30.39,0,110.2,13.15,10.44,291.8
"2016-02-16 00:05:30",1378022,22.96,326.6,8.92,2.137,16.07,104.056,9.66,10.82,30.76,0,110.2,13.15,10.44,288.6
"2016-02-16 00:06:00",1378023,22.13,323.1,9,1.54,16.22,104.0554,9.66,10.86,31.05,0,110.2,13.15,10.44,285.1
"2016-02-16 00:06:30",1378024,20.08,315.3,10.26,1.586,16.06,104.0557,9.66,10.86,30.89,0,110.2,13.15,10.44,277.3
"2016-02-16 00:07:00",1378025,23.89,326.2,7.454,2.376,16.05,104.0566,9.66,10.83,30.76,0,110.2,13.15,10.44,288.2
"2016-02-16 00:07:30",1378026,25,323.5,9.21,3.21,16.41,104.0572,9.66,10.84,30.81,0,110.3,13.15,10.45,285.5
"2016-02-16 00:08:00",1378027,19.18,314.3,8.04,1.845,15.99,104.0513,9.65,10.86,31.08,0,110.2,13.15,10.43,276.3
"2016-02-16 00:08:30",1378028,22.33,322.7,7.574,2.217,16.21,104.0422,9.62,10.82,31.14,0,110.2,13.15,10.41,284.7
"2016-02-16 00:09:00",1378029,23.79,321.8,6.591,2.097,16.16,104.0384,9.61,10.84,31.1,0,110.2,13.15,10.40,283.8
"2016-02-16 00:09:30",1378030,25.76,324.3,6.939,1.627,16.04,104.0291,9.59,10.82,30.62,0,110.2,13.15,10.37,286.3
"2016-02-16 00:10:00",1378031,24.52,322.4,7.596,1.884,16.12,104.0288,9.59,10.79,31.01,0,110.2,13.15,10.37,284.4
"2016-02-16 00:10:30",1378032,22.74,317.1,10.66,1.609,16.54,104.0275,9.58,10.81,31.19,0,110.2,13.15,10.37,279.1
"2016-02-16 00:11:00",1378033,23.17,314,8.8,1.971,16.27,104.0277,9.58,10.79,30.76,0,110.2,13.15,10.37,276.0
"2016-02-16 00:11:30",1378034,26.92,318,6.8,1.617,16.31,104.0286,9.59,10.79,30.27,0,110.2,13.15,10.37,280.0
"2016-02-16 00:12:00",1378035,27.34,318.6,6.533,1.507,16.45,104.0295,9.59,10.77,29.83,0,110.2,13.15,10.38,280.6
"2016-02-16 00:12:30",1378036,26.89,318.2,7.006,2.152,16.12,104.0309,9.59,10.77,30.18,0,110.2,13.15,10.38,280.2
"2016-02-16 00:13:00",1378037,25.53,316.5,7.437,2.628,16.56,104.0456,9.63,10.8,30.34,0,110.2,13.15,10.42,278.5
"2016-02-16 00:13:30",1378038,24.68,323.1,6.213,2.152,16.8,104.0507,9.64,10.81,30.21,0,110.3,13.15,10.43,285.1
"2016-02-16 00:14:00",1378039,21.32,329.2,9.43,2.29,16.3,104.0608,9.67,10.84,30.6,0,110.2,13.15,10.46,291.2
"2016-02-16 00:14:30",1378040,21.27,324.3,7.22,1.574,16.18,104.0631,9.68,10.83,30.9,0,110.2,13.15,10.46,286.3
"2016-02-16 00:15:00",1378041,19.44,324.7,7.39,1.39,16.01,104.0594,9.67,10.81,31.13,0,110.2,13.15,10.45,286.7
"2016-02-16 00:15:30",1378042,23.95,326.6,6.407,2.349,16.42,104.0521,9.65,10.84,31.05,0,110.2,13.15,10.43,288.6
"2016-02-16 00:16:00",1378043,29.59,325.4,7.025,1.807,16.71,104.0481,9.64,10.86,29.89,0,110.2,13.14,10.42,287.4
"2016-02-16 00:16:30",1378044,26.16,319.7,7.948,2.218,16.6,104.0592,9.67,10.84,29.94,0,110.2,13.15,10.45,281.7
"2016-02-16 00:17:00",1378045,24.69,318.3,8.13,1.694,16.83,104.0634,9.68,10.85,29.77,0,110.2,13.15,10.46,280.3
"2016-02-16 00:17:30",1378046,24.07,323.1,7.24,1.896,16.46,104.0679,9.69,10.86,30.11,0,110.2,13.14,10.47,285.1
"2016-02-16 00:18:00",1378047,24.97,325.6,7.213,1.695,16.53,104.0747,9.7,10.86,29.97,0,110.2,13.14,10.49,287.6
"2016-02-16 00:18:30",1378048,24.13,326.8,6.97,1.662,16.36,104.0789,9.72,10.89,30.43,0,110.2,13.14,10.50,288.8
"2016-02-16 00:19:00",1378049,21.32,325.4,6.844,1.358,16.13,104.0783,9.71,10.89,30.93,0,110.2,13.15,10.50,287.4
"2016-02-16 00:19:30",1378050,23.88,321.6,6.631,2.366,16.49,104.0772,9.71,10.87,30.54,0,110.3,13.15,10.50,283.6
"2016-02-16 00:20:00",1378051,23.65,320,6.808,1.691,16.41,104.0764,9.71,10.93,30.27,0,110.2,13.15,10.50,282.0
"2016-02-16 00:20:30",1378052,23.72,319.5,7.044,2.02,16.48,104.0702,9.69,10.9,30.36,0,110.2,13.15,10.48,281.5
"2016-02-16 00:21:00",1378053,28.11,320.6,7.446,2.262,16.37,104.0648,9.68,10.9,29.88,0,110.2,13.15,10.47,282.6
"2016-02-16 00:21:30",1378054,26.71,322.9,7.543,1.846,16.69,104.0766,9.71,10.88,29.48,0,110.2,13.15,10.50,284.9
"2016-02-16 00:22:00",1378055,24.25,323.7,7.159,2.203,16.37,104.0795,9.72,10.88,30.31,0,110.2,13.15,10.50,285.7
"2016-02-16 00:22:30",1378056,22.24,321.5,8.56,1.773,16.59,104.0809,9.72,10.92,30.43,0,110.2,13.15,10.51,283.5
"2016-02-16 00:23:00",1378057,24.61,321.1,7.064,1.931,16.65,104.0803,9.72,10.92,30.36,0,110.2,13.15,10.51,283.1
"2016-02-16 00:23:30",1378058,25.81,328.1,6.438,1.858,16.65,104.0786,9.72,10.93,30.37,0,110.2,13.15,10.50,290.1
"2016-02-16 00:24:00",1378059,24.17,326.1,7.483,1.699,16.71,104.0772,9.71,10.91,29.82,0,110.2,13.15,10.50,288.1
"2016-02-16 00:24:30",1378060,23.89,320.5,7.353,2.479,16.17,104.0769,9.71,10.9,30.48,0,110.2,13.15,10.50,282.5
"2016-02-16 00:25:00",1378061,22.11,318.4,7.483,1.472,16.11,104.075,9.71,10.92,30.84,0,110.2,13.16,10.49,280.4
"2016-02-16 00:25:30",1378062,21.3,319,7.454,1.483,16.6,104.0685,9.69,10.94,30.65,0,110.2,13.15,10.48,281.0
"2016-02-16 00:26:00",1378063,23.15,318,7.589,1.787,16.43,104.0639,9.68,10.92,30.39,0,110.2,13.16,10.46,280.0
"2016-02-16 00:26:30",1378064,21.05,323.6,8.17,2.113,16.24,104.0637,9.68,10.89,30.38,0,110.2,13.16,10.46,285.6
"2016-02-16 00:27:00",1378065,20.66,322.9,7.661,1.356,16.38,104.0569,9.66,10.89,30.46,0,110.2,13.16,10.45,284.9
"2016-02-16 00:27:30",1378066,21.51,322.8,7.902,1.797,16.44,104.049,9.64,10.89,30.61,0,110.2,13.16,10.43,284.8
"2016-02-16 00:28:00",1378067,23.54,324.5,6.909,1.836,16.29,104.042,9.62,10.88,30.35,0,110.2,13.16,10.41,286.5
"2016-02-16 00:28:30",1378068,25.28,328.1,7.429,1.278,16.66,104.0384,9.61,10.87,30.26,0,110.2,13.16,10.40,290.1
"2016-02-16 00:29:00",1378069,26.16,326.3,7.498,2.032,16.76,104.0373,9.61,10.87,30.27,0,110.2,13.16,10.40,288.3
"2016-02-16 00:29:30",1378070,25.84,322.3,6.993,2.318,16.19,104.0374,9.61,10.84,30.28,0,110.2,13.16,10.40,284.3
"2016-02-16 00:30:00",1378071,25.55,323.9,8.04,1.446,16.8,104.0445,9.63,10.87,29.77,0,110.2,13.16,10.41,285.9
"2016-02-16 00:30:30",1378072,26.21,325.1,7.807,1.727,16.57,104.0535,9.65,10.89,30.16,0,110.2,13.16,10.44,287.1
"2016-02-16 00:31:00",1378073,24.34,321.1,8.5,2.299,16.56,104.0571,9.66,10.86,29.94,0,110.2,13.16,10.45,283.1
"2016-02-16 00:31:30",1378074,22.27,327.8,9.04,1.844,16.52,104.0691,9.69,10.87,30.34,0,110.2,13.16,10.48,289.8
"2016-02-16 00:32:00",1378075,24.68,327.7,8.97,2.55,16.6,104.0697,9.69,10.88,30.54,0,110.2,13.16,10.48,289.7
"2016-02-16 00:32:30",1378076,23.83,326.5,6.956,2.05,16.65,104.0711,9.7,10.89,30.1,0,110.2,13.15,10.48,288.5
"2016-02-16 00:33:00",1378077,24.69,330.1,7.342,1.687,16.86,104.0719,9.7,10.88,30.27,0,110.2,13.15,10.48,292.1
"2016-02-16 00:33:30",1378078,19.69,323.1,6.595,1.451,16.46,104.0729,9.7,10.9,30.36,0,110.2,13.15,10.49,285.1
"2016-02-16 00:34:00",1378079,20.1,319.7,6.707,2.028,16.03,104.07,9.69,10.9,30.72,0,110.2,13.15,10.48,281.7
"2016-02-16 00:34:30",1378080,24.57,318,7.06,1.91,16.19,104.0616,9.67,10.88,30.47,0,110.2,13.15,10.46,280.0
"2016-02-16 00:35:00",1378081,26.62,317.7,7.663,1.489,16.45,104.062,9.67,10.86,29.98,0,110.2,13.15,10.46,279.7
"2016-02-16 00:35:30",1378082,27.48,320.4,6.31,1.893,16.65,104.0626,9.67,10.9,30.13,0,110.2,13.15,10.46,282.4
"2016-02-16 00:36:00",1378083,28,323.4,6.494,1.329,16.82,104.0681,9.69,10.87,29.79,0,110.2,13.15,10.47,285.4
"2016-02-16 00:36:30",1378084,25.68,324.2,8.59,1.768,16.57,104.0757,9.71,10.89,30.08,0,110.2,13.15,10.49,286.2
"2016-02-16 00:37:00",1378085,24.01,329.9,6.529,1.704,16.78,104.0805,9.72,10.89,30.19,0,110.2,13.15,10.51,291.9
"2016-02-16 00:37:30",1378086,23.04,328.4,6.675,1.704,16.67,104.0834,9.73,10.89,30.34,0,110.2,13.16,10.51,290.4
"2016-02-16 00:38:00",1378087,23.98,325.6,6.503,2.222,16.79,104.0851,9.73,10.89,30.31,0,110.2,13.16,10.52,287.6
"2016-02-16 00:38:30",1378088,21.25,326,7.214,1.346,16.67,104.086,9.73,10.93,30.5,0,110.2,13.16,10.52,288.0
"2016-02-16 00:39:00",1378089,21.31,325.1,7.049,1.586,16.24,104.0807,9.72,10.91,30.61,0,110.2,13.16,10.51,287.1
"2016-02-16 00:39:30",1378090,23.73,323.1,7.02,2.547,16.48,104.0748,9.71,10.87,30.38,0,110.2,13.16,10.49,285.1
"2016-02-16 00:40:00",1378091,25.27,325.3,6.734,1.637,16.89,104.0762,9.71,10.91,29.51,0,110.2,13.16,10.49,287.3
"2016-02-16 00:40:30",1378092,24.01,323.4,7.73,1.625,16.64,104.085,9.73,10.9,29.9,0,110.2,13.16,10.52,285.4
"2016-02-16 00:41:00",1378093,23.12,322.8,6.437,1.827,16.77,104.0883,9.74,10.93,30.28,0,110.2,13.16,10.53,284.8
"2016-02-16 00:41:30",1378094,24.91,324.1,7.214,2.716,16.82,104.0904,9.75,10.93,30.33,0,110.2,13.16,10.53,286.1
"2016-02-16 00:42:00",1378095,26.85,327.6,6.779,1.481,16.78,104.0895,9.74,10.94,29.67,0,110.2,13.16,10.53,289.6
"2016-02-16 00:42:30",1378096,23.88,325.4,6.104,1.942,16.82,104.0974,9.76,10.9,29.37,0,110.2,13.16,10.55,287.4
"2016-02-16 00:43:00",1378097,20.33,324.7,7.304,1.745,16.83,104.1017,9.77,10.93,29.87,0,110.2,13.16,10.56,286.7
"2016-02-16 00:43:30",1378098,21.69,330.3,7.958,1.409,16.49,104.1059,9.78,10.95,29.71,0,110.2,13.16,10.57,292.3
"2016-02-16 00:44:00",1378099,22.3,325.8,6.83,2.097,16.53,104.1079,9.79,10.96,29.71,0,110.2,13.16,10.58,287.8
"2016-02-16 00:44:30",1378100,27.06,325.8,6.283,1.957,16.87,104.1102,9.8,10.96,29.8,0,110.2,13.16,10.58,287.8
"2016-02-16 00:45:00",1378101,30.89,325.2,6.892,1.654,16.61,104.1161,9.81,10.97,29.12,0,110.2,13.16,10.60,287.2
"2016-02-16 00:45:30",1378102,28.59,324.5,6.761,1.492,16.85,104.1263,9.84,10.99,29.34,0,110.2,13.16,10.62,286.5
"2016-02-16 00:46:00",1378103,27.7,323.6,6.487,2.074,16.84,104.1275,9.84,11.02,29.45,0,110.2,13.16,10.63,285.6
"2016-02-16 00:46:30",1378104,28.31,328.8,6.553,1.856,16.64,104.1417,9.88,11.01,29.47,0,110.2,13.16,10.66,290.8
"2016-02-16 00:47:00",1378105,27.22,327.9,7.104,1.895,16.74,104.1448,9.88,11.02,29.61,0,110.2,13.17,10.67,289.9
"2016-02-16 00:47:30",1378106,22.68,321.8,9.36,2.577,16.78,104.145,9.88,11.03,29.74,0,110.2,13.16,10.67,283.8
"2016-02-16 00:48:00",1378107,22.74,322.2,7.916,2.276,16.46,104.1479,9.89,11.06,29.89,0,110.2,13.16,10.68,284.2
"2016-02-16 00:48:30",1378108,28.34,330.5,8.52,2.324,17.2,104.145,9.88,11.04,29.42,0,110.2,13.16,10.67,292.5
"2016-02-16 00:49:00",1378109,24.76,326.2,7.314,2.105,16.63,104.1479,9.89,11.07,29.41,0,110.2,13.16,10.68,288.2
"2016-02-16 00:49:30",1378110,26.18,329,7.347,1.63,16.38,104.1479,9.89,11.07,29.59,0,110.2,13.16,10.68,291.0
"2016-02-16 00:50:00",1378111,26.73,328.8,7.644,1.7,16.57,104.1459,9.89,11.05,29.55,0,110.2,13.16,10.67,290.8
"2016-02-16 00:50:30",1378112,29.51,326.1,7.357,1.826,16.54,104.1474,9.89,11.04,29.56,0,110.2,13.16,10.68,288.1
"2016-02-16 00:51:00",1378113,29.04,324.9,6.178,1.614,17.25,104.1456,9.89,11.09,29.29,0,110.2,13.16,10.67,286.9
"2016-02-16 00:51:30",1378114,26.84,324.9,7.029,1.699,16.82,104.1471,9.89,11.07,29.47,0,110.2,13.16,10.68,286.9
"2016-02-16 00:52:00",1378115,29.57,328.4,7.045,1.665,16.63,104.1488,9.89,11.06,29.49,0,110.2,13.16,10.68,290.4
"2016-02-16 00:52:30",1378116,28.94,327.3,6.381,1.578,16.8,104.1483,9.89,11.07,29.27,0,110.2,13.16,10.68,289.3
"2016-02-16 00:53:00",1378117,29.42,327.1,7.635,2.1,16.65,104.1488,9.89,11.06,29.31,0,110.2,13.16,10.68,289.1
"2016-02-16 00:53:30",1378118,30.85,325,6.646,2.313,16.76,104.1506,9.9,11.08,29.64,0,110.2,13.16,10.69,287.0
"2016-02-16 00:54:00",1378119,32.36,329.3,6.894,1.971,16.93,104.1505,9.9,11.09,29.52,0,110.2,13.16,10.69,291.3
"2016-02-16 00:54:30",1378120,31.43,329.8,7.067,1.766,16.71,104.1568,9.91,11.1,29.44,0,110.2,13.17,10.70,291.8
"2016-02-16 00:55:00",1378121,29.35,331,6.918,1.537,16.77,104.163,9.93,11.08,29.47,0,110.2,13.17,10.72,293.0
"2016-02-16 00:55:30",1378122,30.08,322.4,6.827,1.957,16.77,104.1618,9.93,11.07,29.67,0,110.2,13.17,10.71,284.4
"2016-02-16 00:56:00",1378123,29.4,325.7,7.21,1.825,16.67,104.163,9.93,11.09,29.48,0,110.2,13.17,10.72,287.7
"2016-02-16 00:56:30",1378124,27.44,326.1,7.184,1.656,16.52,104.1588,9.92,11.1,29.81,0,110.2,13.17,10.71,288.1
"2016-02-16 00:57:00",1378125,28.31,324.8,6.783,1.65,16.79,104.1514,9.9,11.09,30.07,0,110.2,13.17,10.69,286.8
"2016-02-16 00:57:30",1378126,28.68,326.3,7.233,1.659,16.37,104.1446,9.88,11.07,30.02,0,110.2,13.17,10.67,288.3
"2016-02-16 00:58:00",1378127,31.02,330.7,7.441,1.626,16.54,104.1331,9.85,11.05,29.94,0,110.2,13.17,10.64,292.7
"2016-02-16 00:58:30",1378128,29.08,327.8,6.78,1.436,16.76,104.1325,9.85,11.06,30.06,0,110.2,13.17,10.64,289.8
"2016-02-16 00:59:00",1378129,31.27,321.8,6.795,1.638,16.42,104.128,9.84,11.05,29.74,0,110.2,13.17,10.63,283.8
"2016-02-16 00:59:30",1378130,30.52,320.5,6.834,2.223,16.56,104.1238,9.83,11.03,29.55,0,110.2,13.17,10.62,282.5
"2016-02-16 01:00:00",1378131,28.68,322.7,6.228,1.501,16.91,104.1198,9.82,11.02,29.84,0,110.2,13.17,10.61,284.7
"2016-02-16 01:00:30",1378132,28.91,324.9,6.41,1.547,16.65,104.1167,9.81,11.02,29.9,0,110.2,13.17,10.60,286.9
"2016-02-16 01:01:00",1378133,27.83,325.5,7.029,1.903,16.53,104.1144,9.81,11.02,30.15,0,110.2,13.17,10.59,287.5
"2016-02-16 01:01:30",1378134,26.6,329.8,6.219,1.471,16.93,104.1111,9.8,10.99,30.28,0,110.2,13.17,10.58,291.8
"2016-02-16 01:02:00",1378135,27.09,322.6,7.382,1.744,16.71,104.1054,9.78,11,30.32,0,110.2,13.17,10.57,284.6
"2016-02-16 01:02:30",1378136,28.2,326.1,6.064,1.986,16.55,104.0989,9.77,11,29.94,0,110.2,13.17,10.55,288.1
"2016-02-16 01:03:00",1378137,26.04,320.8,8.13,1.643,16.19,104.0989,9.77,10.96,30.15,0,110.2,13.17,10.55,282.8
"2016-02-16 01:03:30",1378138,26.3,320.7,6.155,1.792,16.73,104.0935,9.75,10.96,30.02,0,110.2,13.17,10.54,282.7
"2016-02-16 01:04:00",1378139,24.08,323.2,6.404,1.474,16.23,104.0842,9.73,10.98,30.52,0,110.2,13.17,10.52,285.2
"2016-02-16 01:04:30",1378140,24.25,322,6.78,1.446,16.25,104.0758,9.71,10.95,30.75,0,110.2,13.17,10.49,284.0
"2016-02-16 01:05:00",1378141,24.07,327.8,6.993,1.578,16.45,104.0653,9.68,10.95,30.81,0,110.2,13.17,10.47,289.8
"2016-02-16 01:05:30",1378142,25.3,324.1,7.656,1.367,16.53,104.065,9.68,10.93,30.52,0,110.2,13.17,10.47,286.1
"2016-02-16 01:06:00",1378143,25.88,325.5,7.219,1.646,16.36,104.0588,9.66,10.87,30.3,0,110.2,13.17,10.45,287.5
"2016-02-16 01:06:30",1378144,25.68,323.3,6.601,1.418,16.88,104.0484,9.64,10.9,30.52,0,110.2,13.17,10.42,285.3
"2016-02-16 01:07:00",1378145,27.36,328.7,7.54,1.901,16.85,104.0439,9.63,10.89,30.32,0,110.2,13.16,10.41,290.7
"2016-02-16 01:07:30",1378146,27.66,324.8,6.845,1.688,16.31,104.0371,9.61,10.88,30.11,0,110.2,13.16,10.39,286.8
"2016-02-16 01:08:00",1378147,26.4,326.5,7.49,1.764,16.48,104.0329,9.6,10.87,30.18,0,110.2,13.16,10.38,288.5
"2016-02-16 01:08:30",1378148,27.56,325.1,6.921,1.543,16.56,104.032,9.6,10.84,30.24,0,110.2,13.16,10.38,287.1
"2016-02-16 01:09:00",1378149,26.72,327.4,6.955,2.087,16.74,104.0314,9.59,10.84,30.26,0,110.2,13.16,10.38,289.4
"2016-02-16 01:09:30",1378150,27.8,327.2,6.087,1.466,16.88,104.032,9.6,10.86,30.33,0,110.2,13.16,10.38,289.2
"2016-02-16 01:10:00",1378151,27.05,323.2,7.618,1.546,16.63,104.0371,9.61,10.85,30.64,0,110.2,13.16,10.39,285.2
"2016-02-16 01:10:30",1378152,26.36,321.5,7.263,1.335,16.39,104.0323,9.6,10.82,30.78,0,110.2,13.17,10.38,283.5
"2016-02-16 01:11:00",1378153,25.76,327.3,5.881,1.612,16.67,104.0312,9.59,10.81,30.34,0,110.2,13.17,10.38,289.3
"2016-02-16 01:11:30",1378154,27.81,328.8,7.064,1.463,16.93,104.0337,9.6,10.84,29.94,0,110.2,13.17,10.39,290.8
"2016-02-16 01:12:00",1378155,28.1,332.8,7.306,1.53,16.88,104.0439,9.63,10.85,29.69,0,110.1,13.17,10.41,294.8
"2016-02-16 01:12:30",1378156,26.23,326.8,7.39,2.16,16.75,104.0512,9.64,10.84,29.58,0,110.2,13.17,10.43,288.8
"2016-02-16 01:13:00",1378157,27.48,327.1,6.766,2.055,16.67,104.0628,9.67,10.84,30.01,0,110.2,13.17,10.46,289.1
"2016-02-16 01:13:30",1378158,26.05,329.5,7.645,2.129,16.49,104.065,9.68,10.85,30.05,0,110.2,13.17,10.47,291.5
"2016-02-16 01:14:00",1378159,24.01,328.9,7.466,1.861,16.68,104.065,9.68,10.88,30.29,0,110.2,13.17,10.47,290.9
"2016-02-16 01:14:30",1378160,22.16,331.2,7.226,1.97,16.49,104.065,9.68,10.88,30.26,0,110.2,13.17,10.47,293.2
"2016-02-16 01:15:00",1378161,21.44,325.9,8.57,1.534,16.12,104.065,9.68,10.88,30.59,0,110.2,13.17,10.47,287.9
"2016-02-16 01:15:30",1378162,21.43,324.4,7.767,1.343,16.43,104.065,9.68,10.87,30.45,0,110.2,13.17,10.47,286.4
"2016-02-16 01:16:00",1378163,23.18,320.5,6.94,1.432,16.52,104.0631,9.68,10.87,30.44,0,110.2,13.17,10.46,282.5
"2016-02-16 01:16:30",1378164,24.5,322.3,6.567,1.302,16.34,104.056,9.66,10.86,30.27,0,110.2,13.17,10.44,284.3
"2016-02-16 01:17:00",1378165,26.8,323.3,7.012,2.252,16.98,104.049,9.64,10.84,30.06,0,110.2,13.17,10.43,285.3
"2016-02-16 01:17:30",1378166,27.4,326.6,6.422,2.082,16.82,104.0509,9.64,10.86,29.84,0,110.2,13.17,10.43,288.6
"2016-02-16 01:18:00",1378167,27.68,327.2,6.661,2.034,16.65,104.056,9.66,10.87,29.9,0,110.2,13.17,10.44,289.2
"2016-02-16 01:18:30",1378168,25.58,327.3,8.55,2.175,16.33,104.0639,9.68,10.85,30.17,0,110.2,13.17,10.46,289.3
"2016-02-16 01:19:00",1378169,21.76,329.4,7.15,2.198,16.47,104.0648,9.68,10.87,30.53,0,110.2,13.17,10.47,291.4
"2016-02-16 01:19:30",1378170,20.19,328.1,6.579,1.465,16.45,104.0636,9.68,10.88,30.74,0,110.2,13.17,10.46,290.1
"2016-02-16 01:20:00",1378171,22.24,325,7.883,1.496,16.32,104.0574,9.66,10.87,30.58,0,110.2,13.17,10.45,287.0
"2016-02-16 01:20:30",1378172,25.68,325,6.118,1.527,16.61,104.0492,9.64,10.88,30.25,0,110.2,13.17,10.43,287.0
"2016-02-16 01:21:00",1378173,23.75,327.5,7.236,1.415,16.61,104.0481,9.64,10.87,29.97,0,110.2,13.17,10.42,289.5
"2016-02-16 01:21:30",1378174,23.06,323.7,7.784,1.487,16.19,104.0481,9.64,10.81,30.3,0,110.2,13.17,10.42,285.7
"2016-02-16 01:22:00",1378175,23.5,323,6.9,1.918,16.86,104.0481,9.64,10.87,30.08,0,110.2,13.17,10.42,285.0
"2016-02-16 01:22:30",1378176,22,319.5,6.854,1.878,16.55,104.0481,9.64,10.86,30.34,0,110.2,13.17,10.42,281.5
"2016-02-16 01:23:00",1378177,22.04,323,8.57,2.027,16.16,104.0478,9.64,10.85,30.49,0,110.2,13.17,10.42,285.0
"2016-02-16 01:23:30",1378178,24,321.1,7.527,1.535,16.32,104.0447,9.63,10.85,30.47,0,110.2,13.17,10.41,283.1
"2016-02-16 01:24:00",1378179,23.61,320.6,6.776,1.458,16.46,104.0354,9.6,10.84,30.41,0,110.2,13.17,10.39,282.6
"2016-02-16 01:24:30",1378180,26.37,323.2,6.394,1.497,16.54,104.0323,9.6,10.82,30.26,0,110.2,13.17,10.38,285.2
"2016-02-16 01:25:00",1378181,23.35,325,7.795,1.788,16.83,104.032,9.6,10.82,30.37,0,110.2,13.16,10.38,287.0
"2016-02-16 01:25:30",1378182,21.61,324.3,7.943,1.615,16.4,104.0314,9.59,10.84,30.72,0,110.2,13.17,10.38,286.3
"2016-02-16 01:26:00",1378183,22.97,325.5,6.38,1.509,16.86,104.0312,9.59,10.85,30.61,0,110.2,13.16,10.38,287.5
"2016-02-16 01:26:30",1378184,20.46,323.9,6.847,2.195,16.17,104.0312,9.59,10.84,30.76,0,110.2,13.16,10.38,285.9
"2016-02-16 01:27:00",1378185,21.83,327.7,7.64,1.874,15.96,104.0312,9.59,10.81,30.89,0,110.2,13.17,10.38,289.7
"2016-02-16 01:27:30",1378186,22.55,329.2,7.392,1.773,16.01,104.0224,9.57,10.8,30.93,0,110.2,13.17,10.36,291.2
"2016-02-16 01:28:00",1378187,27.16,325.8,6.646,2.108,16.63,104.0145,9.55,10.8,30.74,0,110.2,13.17,10.34,287.8
"2016-02-16 01:28:30",1378188,29.68,324.1,6.745,1.424,16.8,104.0139,9.55,10.8,29.79,0,110.2,13.17,10.33,286.1
"2016-02-16 01:29:00",1378189,28.76,325.2,6.607,1.554,17.29,104.0207,9.57,10.8,29.64,0,110.2,13.17,10.35,287.2
"2016-02-16 01:29:30",1378190,27.71,325,6.492,1.423,17.01,104.0312,9.59,10.82,29.72,0,110.2,13.17,10.38,287.0
"2016-02-16 01:30:00",1378191,26.86,325,7.039,1.497,16.57,104.0442,9.63,10.8,29.93,0,110.2,13.17,10.41,287.0
"2016-02-16 01:30:30",1378192,25.04,323.4,7.464,1.844,16.93,104.054,9.65,10.85,30.07,0,110.2,13.17,10.44,285.4
"2016-02-16 01:31:00",1378193,23.8,331.9,6.351,1.436,16.53,104.0648,9.68,10.87,30.35,0,110.2,13.17,10.47,293.9
"2016-02-16 01:31:30",1378194,25.15,324.4,7.429,1.686,16.4,104.065,9.68,10.84,30.54,0,110.2,13.17,10.47,286.4
"2016-02-16 01:32:00",1378195,28.45,323.4,7.22,1.536,16.77,104.065,9.68,10.85,30.27,0,110.2,13.17,10.47,285.4
"2016-02-16 01:32:30",1378196,26.25,321,6.718,2.134,16.48,104.0653,9.68,10.89,30.28,0,110.2,13.17,10.47,283.0
"2016-02-16 01:33:00",1378197,24.36,323.2,6.629,2.54,16.59,104.0653,9.68,10.86,30.43,0,110.2,13.17,10.47,285.2
"2016-02-16 01:33:30",1378198,27.69,324.8,6.313,1.516,16.72,104.0648,9.68,10.9,30.28,0,110.2,13.17,10.47,286.8
"2016-02-16 01:34:00",1378199,27.81,319.7,7.503,1.596,16.42,104.0648,9.68,10.88,30.11,0,110.2,13.18,10.47,281.7
"2016-02-16 01:34:30",1378200,26.28,319.4,7.306,1.485,16.47,104.0653,9.68,10.86,30.17,0,110.2,13.18,10.47,281.4
"2016-02-16 01:35:00",1378201,25.7,326.3,6.646,1.813,16.84,104.0645,9.68,10.89,30.26,0,110.2,13.17,10.46,288.3
"2016-02-16 01:35:30",1378202,26.8,329.2,7.125,1.522,16.64,104.064,9.68,10.88,30.19,0,110.2,13.18,10.46,291.2
"2016-02-16 01:36:00",1378203,24.59,328.7,6.114,1.824,16.23,104.06,9.67,10.9,30.73,0,110.2,13.17,10.45,290.7
"2016-02-16 01:36:30",1378204,26.83,328,7.227,1.997,16.51,104.0501,9.64,10.88,30.46,0,110.2,13.18,10.43,290.0
"2016-02-16 01:37:00",1378205,27.66,326.9,7.244,2.036,16.35,104.0481,9.64,10.85,30.35,0,110.2,13.18,10.42,288.9
"2016-02-16 01:37:30",1378206,27.96,327.7,6.769,1.703,16.86,104.0481,9.64,10.87,30.07,0,110.2,13.18,10.42,289.7
"2016-02-16 01:38:00",1378207,26.26,330.4,6.805,1.624,16.96,104.0487,9.64,10.87,30.38,0,110.2,13.18,10.42,292.4
"2016-02-16 01:38:30",1378208,28.27,327,7.006,1.792,16.95,104.0487,9.64,10.85,29.73,0,110.2,13.18,10.42,289.0
"2016-02-16 01:39:00",1378209,27.64,326.5,7.089,2.135,17.18,104.0546,9.65,10.86,28.91,0,110.2,13.17,10.44,288.5
"2016-02-16 01:39:30",1378210,27.83,323.5,6.573,1.598,16.84,104.0653,9.68,10.85,28.97,0,110.2,13.17,10.47,285.5
"2016-02-16 01:40:00",1378211,29.25,324.1,6.363,1.475,17.4,104.0763,9.71,10.87,29.07,0,110.2,13.17,10.50,286.1
"2016-02-16 01:40:30",1378212,27.43,328.6,6.939,2.268,17.38,104.1009,9.77,10.93,28.27,0,110.2,13.17,10.56,290.6
"2016-02-16 01:41:00",1378213,26.58,326.1,7.177,1.696,17.01,104.1232,9.83,10.94,28.74,0,110.2,13.17,10.62,288.1
"2016-02-16 01:41:30",1378214,26.45,324.9,6.557,1.448,16.7,104.1331,9.85,11,29.68,0,110.2,13.17,10.64,286.9
"2016-02-16 01:42:00",1378215,27.34,323.5,7.8,1.446,16.81,104.1396,9.87,10.99,29.26,0,110.2,13.17,10.66,285.5
"2016-02-16 01:42:30",1378216,25.86,324.1,6.923,1.363,16.74,104.1495,9.9,11.03,29.47,0,110.2,13.17,10.68,286.1
"2016-02-16 01:43:00",1378217,22.95,324.6,6.666,1.531,17.06,104.1523,9.9,11.05,29.58,0,110.2,13.17,10.69,286.6
"2016-02-16 01:43:30",1378218,24.06,326.2,6.8,1.429,16.87,104.1517,9.9,11.08,29.65,0,110.2,13.17,10.69,288.2
"2016-02-16 01:44:00",1378219,22.81,325.3,7.254,1.865,16.65,104.1497,9.9,11.08,29.44,0,110.2,13.17,10.68,287.3
"2016-02-16 01:44:30",1378220,22.98,321.8,6.137,1.424,16.63,104.1463,9.89,11.07,29.46,0,110.2,13.17,10.67,283.8
"2016-02-16 01:45:00",1378221,26.34,326.3,6.673,2.409,16.78,104.1365,9.86,11.09,29.78,0,110.2,13.18,10.65,288.3
"2016-02-16 01:45:30",1378222,25.29,322.3,6.675,1.851,16.37,104.1331,9.85,11.08,29.51,0,110.2,13.18,10.64,284.3
"2016-02-16 01:46:00",1378223,22.4,321.4,6.805,1.629,16.85,104.1337,9.86,11.1,29.46,0,110.2,13.18,10.64,283.4
"2016-02-16 01:46:30",1378224,22.38,324.2,6.72,1.794,16.59,104.1334,9.86,11.09,29.27,0,110.2,13.18,10.64,286.2
"2016-02-16 01:47:00",1378225,24.69,325.6,6.647,1.402,16.76,104.1343,9.86,11.07,29.08,0,110.2,13.18,10.64,287.6
"2016-02-16 01:47:30",1378226,24.53,320.7,6.831,1.509,16.79,104.1337,9.86,11.07,29.35,0,110.3,13.18,10.64,282.7